Weather in Kudrovo

Russia / Saint-Petersburg and Leningrad Oblast     59˚54′30″N   30˚30′48″E
temp.,
°C
wind,
m/s
gust,
m/s
humid.,
%
clouds,
%
prec.,
mm/h
press.,
hPa
HPBL,
m
16 january, sat
sat1600:00−15˚e2691100 0.1 1016482
03:00−16˚e269198 0.2 1017453
06:00−17˚ese1494100 0.0 1017243
09:00−17˚ne1196100 0.1 101825
12:00−14˚ne1591100 0.1 1018346
15:00−12˚ne1692100 0.1 1018439
18:00−14˚n129689 0.0 101721
21:00−14˚nnw229788 0.1 101738
17 january, sun
sun1700:00−14˚nw239798 0.1 101770
03:00−14˚nw229695 0.1 101746
06:00−14˚wnw239633 0.0 101651
09:00−13˚w229731 0.0 101631
12:00−9˚w259477 0.1 1016247
15:00−8˚w259483 0.1 1015249
18:00−9˚w249794 0.1 1015124
21:00−9˚wnw249794 0.3 1016116
18 january, mon
mon1800:00−9˚wnw249783 0.1 101595
03:00−9˚wnw229685 0.1 101641
06:00−9˚wnw129771 0.0 101521
09:00−9˚w129781 0.1 101621
12:00−7˚wnw119597 0.2 101659
15:00−7˚ssw119791 0.2 101621
18:00−8˚ssw229784 0.1 101644
21:00−7˚ssw239791 0.1 101691
19 january, tue
tue1900:00−7˚ssw249793 0.2 101697
03:00−8˚sw249793 0.2 101589
06:00−10˚ssw249495 0.0 101593
09:00−11˚ssw259691 0.0 1015108
12:00−8˚ssw369394 0.1 1015253
15:00−7˚sw259392 0.1 1015253
18:00−10˚ssw369674 0.0 1015128
21:00−11˚ssw359446 0.0 1015123
20 january, wed
wed2000:00−11˚ssw26930 0.0 1015141
03:00−11˚s399214 0.0 1015245
06:00−11˚s4108387 0.0 1014294
09:00−11˚s4127894 0.0 1012358
12:00−10˚s51084100 0.0 1011372
15:00−9˚s51188100 0.0 1009382
18:00−8˚sse51292100 0.3 1007522
21:00−7˚s51193100 2.2 1004664